Zacatecas Airport, Mexico

12:02 AM CDT on April 28, 2017 (GMT -0500)
Gen Leobardo C Ruiz International

Weather History for MMZC - November, 2012

Change the Weather History Date:

Saturday, November 3, 2012

  Actual Average Record
Temperature  
Mean Temperature 55 °F -  
Max Temperature 69 °F 72 °F 82 °F (2005)
Min Temperature 41 °F 39 °F 26 °F (2004)
Degree Days  
Heating Degree Days 10    
Growing Degree Days 5 (Base 50)    
Moisture  
Dew Point 31 °F    
Average Humidity 40    
Maximum Humidity 61    
Minimum Humidity 25    
Precipitation  
Precipitation 0.00 in - - ()
Sea Level Pressure  
Sea Level Pressure 30.24 in    
Wind  
Wind Speed 3 mph ()    
Max Wind Speed 10 mph    
Max Gust Speed -    
Visibility 10.0 miles    
Events      
Averages and records for this station are not official NWS values.
T = Trace of Precipitation, MM = Missing Value Source: Averaged Metar Reports

Daily Weather History Graph

Daily Weather History Graph

Search for Another Location

Airport or City:

Trip Planner

Search our weather history database for the weather conditions in past years. The results will help you decide how hot, cold, wet, or windy it might be!

Date:

Astronomy

Nov. 03, 2012 Rise Set
Actual Time 6:56 AM CST 6:11 PM CST
Civil Twilight 6:33 AM CST 6:34 PM CST
Nautical Twilight 6:06 AM CST 7:01 PM CST
Astronomical Twilight 5:40 AM CST 7:27 PM CST
Moon 10:04 PM CST (11/3) 10:51 AM CST (11/3)
Length of Visible Light 12h 00m
Length of Day
11h 14m
Waning Gibbous, 80% of the Moon is Illuminated
Nov 3
Waning Gibbous
Nov 6
Last Quarter
Nov 13
New
Nov 20
First Quarter
Nov 28
Full

Hourly Weather History & Observations

Time (CST) Temp. Windchill Dew Point Humidity Pressure Visibility Wind Dir Wind Speed Gust Speed Precip Events Conditions
12:48 AM 42.8 °F 40.1 °F 23.0 °F 46% 30.23 in 10.0 mi SW 4.6 mph - N/A   Partly Cloudy
1:45 AM 44.6 °F 40.2 °F 23.0 °F 43% 30.23 in 10.0 mi SSW 8.1 mph - N/A   Partly Cloudy
2:50 AM 44.6 °F - 23.0 °F 43% 30.22 in 10.0 mi Calm Calm - N/A   Clear
3:44 AM 42.8 °F 39.3 °F 24.8 °F 49% 30.21 in 10.0 mi South 5.8 mph - N/A   Scattered Clouds
4:44 AM 42.8 °F 38.6 °F 24.8 °F 49% 30.23 in 10.0 mi SSW 6.9 mph - N/A   Scattered Clouds
5:46 AM 41.0 °F - 26.6 °F 57% 30.25 in 10.0 mi Calm Calm - N/A   Scattered Clouds
6:48 AM 41.0 °F 39.0 °F 28.4 °F 61% 30.26 in 10.0 mi SSW 3.5 mph - N/A   Scattered Clouds
9:44 AM 59.0 °F - 32.0 °F 36% 30.31 in 10.0 mi Calm Calm - N/A   Mostly Cloudy
10:43 AM 64.4 °F - 32.0 °F 30% 30.30 in 10.0 mi Calm Calm - N/A   Mostly Cloudy
11:47 AM 68.0 °F - 32.0 °F 26% 30.28 in 10.0 mi Calm Calm - N/A   Mostly Cloudy
12:44 PM 69.8 °F - 32.0 °F 25% 30.16 in 10.0 mi South 9.2 mph - N/A   Mostly Cloudy
1:41 PM 69.8 °F - 32.0 °F 25% 30.23 in 10.0 mi Calm Calm - N/A   Mostly Cloudy
2:42 PM 69.8 °F - 33.8 °F 27% 30.20 in 10.0 mi Calm Calm - N/A   Mostly Cloudy
4:40 PM 68.0 °F - 33.8 °F 28% 30.20 in 10.0 mi Calm Calm - N/A   Overcast
5:40 PM 66.2 °F - 37.4 °F 35% 30.21 in 10.0 mi SSW 10.4 mph - N/A   Overcast
7:10 PM 62.6 °F - 35.6 °F 37% 30.24 in 10.0 mi SW 5.8 mph - N/A   Overcast
7:40 PM 60.8 °F - 37.4 °F 42% 30.25 in 10.0 mi South 8.1 mph - N/A   Overcast
8:41 PM 60.8 °F - 35.6 °F 39% 30.26 in 10.0 mi South 8.1 mph - N/A   Overcast
9:46 PM 57.2 °F - 37.4 °F 48% 30.28 in 10.0 mi South 6.9 mph - N/A   Overcast
10:45 PM 60.8 °F - 35.6 °F 39% 30.28 in 10.0 mi Calm Calm - N/A   Overcast
11:46 PM 55.4 °F - 37.4 °F 51% 30.28 in 10.0 mi Calm Calm - N/A   Overcast